Precipitable_Water
0.39 0.44 0.44 0.42 0.38 0.37 0.37 0.38 0.33 0.34 0.39 0.43 0.49 0.50 0.53 0.56 0.58 0.57 0.60 0.61 0.62 0.61 0.61 0.60 0.60 0.61 0.58 0.57 0.54 0.52 0.46 0.45 0.45 0.47 0.47 0.47 0.46 0.45 0.45 0.41 0.39 0.38 0.33 0.27
0.35 0.39 0.44 0.40 0.37 0.38 0.41 0.42 0.40 0.39 0.39 0.51 0.51 0.57 0.54 0.55 0.57 0.58 0.59 0.60 0.62 0.61 0.60 0.58 0.57 0.55 0.55 0.55 0.54 0.55 0.52 0.51 0.53 0.53 0.53 0.51 0.50 0.46 0.42 0.39 0.38 0.31 0.25 0.20
0.29 0.40 0.42 0.34 0.31 0.36 0.39 0.41 0.41 0.36 0.44 0.54 0.54 0.55 0.57 0.60 0.60 0.58 0.60 0.59 0.60 0.60 0.57 0.54 0.55 0.56 0.53 0.52 0.54 0.56 0.57 0.58 0.57 0.56 0.54 0.49 0.46 0.40 0.37 0.35 0.29 0.21 0.18 0.18
0.34 0.39 0.25 0.35 0.42 0.39 0.40 0.44 0.47 0.46 0.50 0.56 0.56 0.59 0.63 0.64 0.63 0.60 0.59 0.60 0.60 0.57 0.52 0.54 0.56 0.53 0.52 0.52 0.54 0.54 0.54 0.52 0.50 0.49 0.47 0.40 0.38 0.36 0.34 0.25 0.19 0.17 0.17 0.19
0.33 0.31 0.34 0.34 0.37 0.39 0.36 0.36 0.51 0.50 0.53 0.55 0.61 0.59 0.53 0.61 0.65 0.62 0.61 0.62 0.58 0.55 0.55 0.55 0.51 0.50 0.48 0.48 0.47 0.47 0.45 0.45 0.39 0.38 0.36 0.35 0.33 0.30 0.21 0.18 0.16 0.17 0.19 0.20
0.35 0.27 0.22 0.30 0.42 0.50 0.50 0.31 0.54 0.57 0.57 0.56 0.62 0.43 0.45 0.61 0.62 0.60 0.61 0.59 0.54 0.52 0.50 0.47 0.49 0.49 0.47 0.42 0.42 0.37 0.37 0.38 0.38 0.35 0.34 0.31 0.23 0.20 0.18 0.18 0.17 0.18 0.19 0.22
0.32 0.29 0.32 0.39 0.46 0.54 0.29 0.33 0.54 0.59 0.58 0.58 0.53 0.57 0.63 0.61 0.54 0.54 0.57 0.52 0.51 0.47 0.44 0.46 0.47 0.46 0.41 0.36 0.34 0.36 0.36 0.36 0.36 0.33 0.26 0.22 0.20 0.19 0.18 0.18 0.18 0.19 0.20 0.20
0.37 0.31 0.25 0.50 0.46 0.36 0.46 0.55 0.58 0.58 0.60 0.59 0.61 0.63 0.61 0.52 0.50 0.52 0.47 0.45 0.43 0.41 0.43 0.46 0.46 0.41 0.32 0.33 0.36 0.37 0.36 0.33 0.28 0.24 0.21 0.21 0.20 0.19 0.18 0.18 0.17 0.18 0.18 0.18
0.39 0.35 0.45 0.50 0.49 0.52 0.57 0.55 0.57 0.61 0.62 0.64 0.61 0.58 0.49 0.44 0.45 0.42 0.44 0.42 0.40 0.41 0.41 0.43 0.38 0.37 0.36 0.38 0.36 0.34 0.31 0.25 0.22 0.22 0.22 0.21 0.19 0.18 0.18 0.18 0.18 0.17 0.17 0.17
0.44 0.45 0.45 0.51 0.52 0.53 0.55 0.58 0.62 0.65 0.69 0.63 0.54 0.49 0.43 0.43 0.41 0.42 0.40 0.37 0.41 0.40 0.36 0.37 0.36 0.35 0.35 0.36 0.34 0.28 0.23 0.21 0.22 0.22 0.21 0.20 0.20 0.20 0.19 0.18 0.18 0.17 0.17 0.19
0.43 0.47 0.49 0.49 0.53 0.58 0.60 0.66 0.67 0.68 0.62 0.54 0.48 0.43 0.43 0.41 0.40 0.38 0.39 0.41 0.42 0.38 0.35 0.34 0.34 0.35 0.35 0.33 0.27 0.22 0.21 0.21 0.21 0.21 0.20 0.20 0.21 0.20 0.20 0.20 0.20 0.18 0.19 0.23
0.38 0.48 0.51 0.49 0.59 0.64 0.62 0.62 0.60 0.55 0.49 0.50 0.46 0.43 0.43 0.37 0.37 0.40 0.39 0.42 0.43 0.37 0.33 0.33 0.34 0.33 0.29 0.27 0.24 0.22 0.20 0.20 0.21 0.20 0.21 0.21 0.19 0.19 0.21 0.23 0.22 0.20 0.23 0.28
0.52 0.56 0.54 0.58 0.61 0.63 0.57 0.56 0.52 0.50 0.47 0.41 0.42 0.42 0.38 0.35 0.39 0.43 0.44 0.39 0.34 0.33 0.33 0.33 0.31 0.26 0.26 0.25 0.25 0.23 0.21 0.21 0.21 0.22 0.22 0.21 0.20 0.20 0.19 0.22 0.21 0.19 0.23 0.29
0.55 0.55 0.54 0.62 0.57 0.57 0.50 0.48 0.48 0.46 0.46 0.43 0.40 0.39 0.39 0.38 0.38 0.38 0.35 0.35 0.34 0.33 0.31 0.28 0.26 0.25 0.26 0.26 0.25 0.24 0.23 0.23 0.23 0.23 0.23 0.22 0.22 0.22 0.21 0.19 0.16 0.16 0.24 0.28
0.54 0.61 0.56 0.53 0.49 0.47 0.45 0.43 0.41 0.38 0.38 0.38 0.39 0.37 0.34 0.32 0.32 0.30 0.33 0.32 0.32 0.27 0.28 0.29 0.26 0.22 0.25 0.27 0.25 0.24 0.23 0.22 0.23 0.24 0.25 0.24 0.24 0.23 0.21 0.20 0.17 0.17 0.23 0.26
0.50 0.49 0.47 0.45 0.43 0.42 0.40 0.36 0.33 0.34 0.36 0.36 0.35 0.33 0.33 0.31 0.30 0.29 0.30 0.30 0.26 0.23 0.25 0.24 0.21 0.23 0.28 0.27 0.26 0.25 0.24 0.25 0.25 0.26 0.26 0.25 0.24 0.21 0.21 0.19 0.16 0.17 0.23 0.24
0.44 0.44 0.42 0.38 0.33 0.29 0.31 0.33 0.32 0.29 0.31 0.33 0.35 0.34 0.31 0.28 0.26 0.26 0.26 0.28 0.27 0.26 0.23 0.21 0.21 0.28 0.32 0.29 0.28 0.25 0.25 0.26 0.26 0.26 0.26 0.25 0.23 0.22 0.21 0.19 0.16 0.18 0.24 0.25
0.43 0.39 0.34 0.29 0.27 0.28 0.28 0.27 0.27 0.29 0.31 0.35 0.39 0.37 0.28 0.26 0.26 0.26 0.27 0.27 0.25 0.22 0.24 0.27 0.29 0.29 0.29 0.29 0.27 0.26 0.27 0.27 0.26 0.25 0.26 0.24 0.23 0.22 0.20 0.19 0.16 0.20 0.24 0.24
0.35 0.31 0.29 0.25 0.25 0.27 0.27 0.27 0.29 0.31 0.33 0.37 0.37 0.31 0.29 0.31 0.30 0.29 0.27 0.25 0.23 0.20 0.22 0.25 0.25 0.26 0.26 0.27 0.27 0.27 0.27 0.28 0.27 0.25 0.25 0.24 0.23 0.21 0.20 0.19 0.17 0.20 0.23 0.23
0.35 0.31 0.27 0.25 0.26 0.28 0.27 0.30 0.30 0.31 0.34 0.37 0.35 0.30 0.32 0.30 0.30 0.29 0.26 0.20 0.21 0.21 0.23 0.22 0.23 0.24 0.26 0.29 0.29 0.28 0.28 0.27 0.26 0.26 0.24 0.23 0.22 0.21 0.20 0.20 0.20 0.19 0.20 0.23
0.32 0.30 0.26 0.25 0.24 0.26 0.29 0.31 0.31 0.31 0.34 0.39 0.33 0.32 0.31 0.31 0.31 0.25 0.19 0.16 0.20 0.22 0.22 0.22 0.23 0.25 0.28 0.29 0.29 0.29 0.29 0.27 0.26 0.25 0.24 0.24 0.22 0.20 0.20 0.21 0.21 0.19 0.18 0.22
0.29 0.28 0.25 0.26 0.29 0.27 0.29 0.32 0.34 0.34 0.37 0.35 0.36 0.34 0.32 0.29 0.26 0.22 0.21 0.20 0.21 0.22 0.23 0.23 0.24 0.27 0.27 0.29 0.29 0.29 0.28 0.27 0.26 0.26 0.25 0.24 0.22 0.20 0.20 0.20 0.20 0.19 0.18 0.20
0.27 0.25 0.27 0.28 0.29 0.31 0.30 0.32 0.35 0.36 0.37 0.37 0.35 0.33 0.31 0.27 0.23 0.18 0.16 0.21 0.22 0.23 0.23 0.24 0.26 0.27 0.27 0.27 0.27 0.27 0.27 0.27 0.27 0.26 0.26 0.25 0.23 0.20 0.20 0.20 0.20 0.18 0.17 0.18
0.24 0.25 0.28 0.30 0.33 0.31 0.27 0.30 0.35 0.38 0.38 0.37 0.36 0.35 0.31 0.23 0.21 0.23 0.24 0.23 0.23 0.23 0.24 0.25 0.26 0.26 0.27 0.27 0.27 0.27 0.28 0.28 0.28 0.28 0.27 0.26 0.24 0.22 0.21 0.22 0.20 0.19 0.17 0.17
0.25 0.27 0.29 0.29 0.29 0.31 0.32 0.34 0.36 0.38 0.37 0.36 0.36 0.35 0.31 0.25 0.20 0.20 0.21 0.22 0.23 0.24 0.24 0.26 0.27 0.27 0.27 0.27 0.27 0.28 0.28 0.28 0.29 0.28 0.27 0.27 0.25 0.22 0.21 0.21 0.21 0.20 0.19 0.17
0.27 0.28 0.29 0.34 0.33 0.34 0.34 0.36 0.36 0.37 0.37 0.35 0.36 0.34 0.30 0.25 0.22 0.21 0.22 0.24 0.23 0.24 0.24 0.26 0.26 0.27 0.27 0.27 0.27 0.28 0.28 0.28 0.28 0.28 0.27 0.27 0.26 0.23 0.21 0.20 0.21 0.20 0.19 0.17
0.31 0.34 0.35 0.35 0.35 0.35 0.35 0.38 0.37 0.36 0.38 0.37 0.34 0.33 0.29 0.25 0.21 0.21 0.22 0.22 0.22 0.23 0.24 0.25 0.26 0.27 0.27 0.27 0.27 0.28 0.29 0.29 0.28 0.28 0.28 0.27 0.27 0.26 0.23 0.21 0.21 0.20 0.19 0.18
Wind_Speed
20 22 25 28 30 30 29 30 28 34 31 29 29 26 29 33 34 35 35 39 42 45 45 46 47 47 46 48 51 50 45 40 38 36 35 34 34 34 33 34 35 35 36 38
23 25 26 26 30 32 29 26 26 30 34 28 28 29 34 33 36 38 42 43 46 47 47 49 48 46 49 51 51 47 42 38 36 35 35 35 35 33 34 34 35 36 38 39
28 24 23 25 24 22 24 29 28 27 27 30 33 35 36 37 38 42 44 46 48 48 49 48 47 49 52 53 51 46 41 37 36 36 35 32 32 30 33 35 36 37 38 39
24 23 20 21 28 32 29 25 28 29 31 32 35 37 40 40 40 44 47 47 48 49 49 48 50 52 54 51 45 40 37 34 31 30 30 29 30 32 34 35 37 38 39 38
20 21 27 27 25 24 30 33 27 29 34 39 39 43 42 40 43 45 49 48 50 49 48 51 52 53 48 43 39 35 33 30 28 28 30 31 32 33 35 36 37 37 37 38
21 23 25 25 27 27 29 31 26 35 36 39 41 42 44 42 45 48 47 48 48 49 51 51 50 47 43 41 35 31 31 30 30 30 32 32 33 34 35 35 36 37 37 34
22 25 27 29 25 27 26 34 39 37 40 40 41 42 43 45 46 47 46 46 48 50 50 49 47 43 39 34 32 32 31 31 32 32 32 32 33 34 34 35 36 34 33 34
24 24 28 22 30 30 36 38 41 41 41 44 45 41 43 45 47 45 45 47 50 50 49 46 44 40 33 32 33 33 33 32 31 31 32 32 33 33 34 35 33 33 33 33
26 30 32 37 40 40 42 43 42 42 43 41 43 42 43 44 44 44 46 49 49 48 46 44 39 34 33 33 33 32 32 31 31 31 32 32 32 34 34 32 32 31 31 30
35 36 41 42 44 43 43 41 42 40 42 42 41 41 42 43 45 47 49 49 47 46 44 39 34 32 31 31 32 31 30 30 31 31 32 32 33 33 32 31 31 31 29 26
39 42 45 43 41 43 44 41 43 41 41 41 39 42 43 47 48 49 48 46 45 45 40 34 32 31 31 30 30 29 30 31 31 32 32 32 33 32 31 31 29 29 26 22
41 43 43 47 43 44 42 42 39 40 40 38 41 44 46 47 48 46 46 45 44 40 33 32 31 31 30 29 28 29 30 32 32 32 32 33 32 31 30 29 29 27 22 18
43 44 46 46 43 41 39 36 38 39 40 43 43 44 46 47 46 45 44 43 38 35 32 31 31 30 28 27 28 29 31 32 32 32 31 32 31 30 29 27 26 22 17 15
46 46 42 36 36 38 38 39 42 42 40 43 45 46 45 45 45 44 42 37 35 33 31 29 28 27 27 27 29 31 32 33 32 30 31 31 30 29 27 24 21 17 13 12
39 35 35 36 40 39 40 40 40 42 44 46 45 46 45 44 43 41 36 33 32 31 29 27 27 27 27 29 30 32 33 33 30 29 30 29 28 26 23 19 17 13 11 9
37 37 38 35 38 39 38 41 42 44 46 47 45 44 43 41 39 36 33 31 30 29 28 27 27 28 28 29 31 32 32 30 29 28 27 26 24 22 19 15 14 10 8 7
33 33 32 36 38 41 42 43 45 47 46 46 44 42 39 36 34 32 30 30 28 27 27 27 28 27 28 30 31 31 30 28 26 25 24 22 21 19 16 14 13 8 7 5
30 33 36 38 42 43 45 46 46 46 45 43 40 37 34 32 30 29 28 27 26 25 25 26 26 27 28 28 29 28 26 23 23 23 21 20 19 16 14 13 10 7 6 5
33 37 40 43 44 44 45 46 44 43 42 39 36 32 29 28 27 26 25 24 23 24 25 26 26 27 27 27 25 24 22 21 21 21 20 19 17 15 13 13 9 7 6 4
39 42 44 45 46 44 44 42 42 40 38 33 31 27 26 25 23 22 22 22 22 23 25 26 26 26 26 24 22 21 19 19 20 19 18 17 16 14 13 12 8 6 5 4
43 45 47 45 43 42 40 40 38 37 34 31 26 24 22 21 20 20 20 21 21 23 25 25 25 24 23 21 19 19 18 18 19 18 17 16 15 13 12 11 7 5 5 4
44 43 43 42 40 40 40 38 36 33 30 25 21 20 19 19 18 19 18 19 21 22 23 23 22 22 21 19 18 18 18 18 17 16 15 15 14 12 12 10 7 5 5 4
42 42 41 40 39 39 38 35 32 29 23 19 18 17 17 17 17 16 17 18 20 21 22 22 22 21 20 18 18 18 18 17 15 14 14 14 14 12 11 9 7 5 4 4
43 42 41 40 39 38 36 32 28 23 19 18 16 16 16 16 15 15 15 18 19 20 20 21 21 20 19 18 18 18 17 16 15 13 13 14 13 13 11 8 7 5 4 3
42 42 41 39 37 34 31 27 23 19 17 16 15 15 15 14 14 15 16 17 18 19 20 20 20 19 19 18 18 18 16 15 14 13 13 13 12 12 11 8 7 5 3 2
41 39 36 33 31 28 25 22 19 17 15 14 14 14 14 14 14 15 16 17 17 18 19 20 20 19 19 19 18 17 16 15 14 13 13 12 12 12 11 9 6 5 4 3
34 33 29 27 25 23 21 19 17 15 14 13 13 14 14 14 15 16 17 17 18 18 19 20 20 20 20 19 18 17 15 15 14 14 13 12 11 11 10 9 7 5 4 3
Wind_Direction
297 300 302 302 305 303 302 298 296 301 300 306 310 310 313 315 316 317 317 317 317 316 316 316 317 317 317 317 318 316 310 309 309 307 305 304 303 302 301 303 304 303 303 303
298 299 299 302 304 303 300 299 300 303 303 305 310 314 316 316 318 317 316 317 317 317 317 317 317 317 318 318 318 317 313 308 306 306 305 304 303 302 303 305 306 305 305 305
297 307 309 309 309 308 303 306 304 305 309 317 315 315 317 315 315 317 317 318 317 318 318 318 318 318 318 317 315 314 311 306 305 305 304 303 302 303 305 306 307 308 308 307
302 309 300 306 316 310 307 306 309 313 314 315 313 313 314 314 313 315 315 316 316 317 317 318 317 317 317 317 317 316 313 311 310 308 307 307 306 306 308 308 309 309 310 309
302 300 301 312 310 316 313 310 311 315 314 315 311 310 313 311 312 313 314 315 316 317 317 318 317 318 318 319 318 317 316 314 314 313 311 310 309 309 310 310 311 311 311 310
304 302 304 310 315 317 316 306 312 318 314 312 312 311 313 313 313 314 315 316 317 318 318 318 319 318 318 318 317 318 318 316 314 314 312 311 311 311 311 312 312 313 313 313
300 300 301 309 310 317 318 309 311 310 311 309 308 309 310 312 313 315 316 318 319 319 319 319 320 319 317 318 318 318 317 315 313 312 312 312 313 313 313 313 314 315 315 314
301 300 305 311 311 314 308 308 309 308 309 309 308 308 309 312 314 317 317 318 318 318 318 319 318 317 317 317 316 315 315 315 314 314 314 314 315 315 315 316 316 316 316 316
293 294 299 305 305 307 307 306 307 307 309 310 310 310 311 313 316 317 317 318 318 319 319 318 317 316 314 314 315 315 316 315 315 315 316 316 316 316 317 317 317 317 317 317
299 297 297 301 304 304 305 304 307 308 308 309 308 309 312 314 315 315 317 317 318 319 319 317 316 316 315 316 316 316 316 317 317 317 317 317 317 318 318 318 317 318 317 317
294 298 299 300 302 305 307 307 307 306 306 306 307 311 311 313 314 315 315 316 317 318 317 316 317 317 316 316 317 318 318 318 318 317 317 318 318 319 318 318 318 319 318 317
294 299 299 300 305 305 306 307 305 306 307 309 311 311 313 315 315 315 315 317 317 317 318 317 317 316 316 317 318 320 319 319 318 318 318 319 319 319 319 318 319 320 318 317
295 299 299 301 302 306 307 307 310 311 309 309 311 312 314 314 315 314 315 314 316 317 315 315 315 316 315 316 318 319 320 320 319 318 318 320 319 319 318 319 320 320 318 320
295 297 298 299 302 303 302 304 306 307 309 310 311 311 312 314 314 315 315 314 315 315 314 314 316 317 317 317 318 320 320 319 319 318 320 320 320 320 320 320 319 320 319 324
298 297 299 301 304 304 305 306 308 308 309 310 311 310 311 312 313 314 313 315 316 316 316 315 315 315 316 318 319 321 321 321 320 320 321 322 322 323 323 323 322 319 318 324
298 299 300 300 305 306 305 307 308 310 310 310 309 309 310 311 312 313 313 314 315 315 315 314 314 315 317 318 320 322 324 323 323 323 324 325 327 328 328 327 327 321 322 323
299 298 299 303 304 305 305 308 309 309 309 310 308 308 309 310 313 313 314 314 315 315 315 315 315 316 316 319 322 323 324 326 327 328 330 330 331 331 331 331 331 322 324 320
300 304 305 304 306 306 306 308 308 308 309 309 309 308 307 310 312 313 314 316 318 319 321 322 321 320 320 321 323 324 326 328 331 333 333 334 335 335 335 336 333 328 324 317
301 304 306 306 306 305 306 307 309 310 310 309 309 306 307 309 311 314 317 319 320 322 323 324 324 323 323 323 325 327 329 331 333 335 336 337 338 337 339 339 335 333 327 319
302 304 305 306 306 306 306 307 309 309 309 307 307 305 307 309 312 316 319 321 323 325 326 327 326 326 326 325 327 330 331 334 336 337 338 340 341 341 340 341 335 333 334 322
301 303 304 305 305 306 306 308 309 309 307 306 303 303 305 310 312 317 320 324 326 329 330 331 332 333 332 333 332 333 334 335 337 338 341 343 343 343 343 343 337 336 340 333
300 302 303 304 304 306 307 306 307 307 305 302 300 302 306 310 313 317 321 324 329 333 336 338 338 338 339 339 338 337 337 337 337 340 343 346 346 346 345 347 343 337 342 343
300 301 301 302 303 304 307 306 304 305 300 296 298 301 304 308 312 317 322 326 332 335 338 340 341 342 341 340 340 340 339 339 340 341 345 349 350 349 348 349 349 343 342 345
300 300 300 301 300 300 301 303 300 296 291 293 294 298 304 308 311 316 322 326 330 334 337 339 340 341 342 339 340 340 341 342 341 341 344 348 351 351 350 350 352 350 351 351
301 300 299 299 299 297 296 297 294 287 285 287 289 295 302 304 308 314 319 324 328 333 336 339 340 341 341 338 336 339 338 340 341 340 341 343 349 351 351 347 344 343 349 354
302 302 300 297 297 297 292 291 285 281 280 279 287 294 300 303 307 312 317 322 325 330 334 337 339 339 339 339 336 333 335 333 334 335 336 336 340 345 348 346 341 335 327 322
303 304 301 297 295 295 289 284 278 274 271 274 288 294 297 300 304 308 313 317 320 324 328 331 334 335 335 335 337 335 330 331 329 326 326 326 326 331 337 340 337 333 327 311